Time,TemperatureF,DewpointF,PressureIn,WindDirection,WindDirectionDegrees,WindSpeedMPH,WindSpeedGustMPH,Humidity,HourlyPrecipIn,Conditions,Clouds,dailyrainin,SoftwareType,DateUTC
2013-10-28 00:01:00,38.9,32.0,30.10,NNW,337,0.0,2.0,74,0.00,,,0.00,Rainwise IP-100,2013-10-28 04:01:00,
2013-10-28 00:06:00,39.1,32.0,30.09,NNW,337,0.0,1.0,74,0.00,,,0.00,Rainwise IP-100,2013-10-28 04:06:00,
2013-10-28 00:11:00,39.3,32.0,30.10,NNW,337,0.0,2.0,75,0.00,,,0.00,Rainwise IP-100,2013-10-28 04:11:00,
2013-10-28 00:16:00,39.3,32.0,30.10,NNW,337,0.0,2.0,75,0.00,,,0.00,Rainwise IP-100,2013-10-28 04:16:00,
2013-10-28 00:21:00,39.2,32.0,30.10,NNW,337,0.0,2.0,75,0.00,,,0.00,Rainwise IP-100,2013-10-28 04:21:00,
2013-10-28 00:26:00,38.8,32.0,30.10,NNW,337,1.9,2.0,75,0.00,,,0.00,Rainwise IP-100,2013-10-28 04:26:00,
2013-10-28 00:31:00,38.2,31.0,30.10,NNW,337,1.9,2.0,76,0.00,,,0.00,Rainwise IP-100,2013-10-28 04:31:00,
2013-10-28 00:36:00,37.8,32.0,30.10,NNW,337,0.0,2.0,77,0.00,,,0.00,Rainwise IP-100,2013-10-28 04:36:00,
2013-10-28 00:41:00,37.8,32.0,30.10,NNW,337,0.0,1.0,78,0.00,,,0.00,Rainwise IP-100,2013-10-28 04:41:00,
2013-10-28 00:46:00,38.5,33.0,30.11,NW,315,0.0,2.0,79,0.00,,,0.00,Rainwise IP-100,2013-10-28 04:46:00,
2013-10-28 00:51:00,39.2,33.0,30.11,NW,315,0.0,0.0,78,0.00,,,0.00,Rainwise IP-100,2013-10-28 04:51:00,
2013-10-28 00:56:00,39.4,32.0,30.11,NW,315,0.0,1.0,77,0.00,,,0.00,Rainwise IP-100,2013-10-28 04:56:00,
2013-10-28 01:01:00,39.2,32.0,30.11,NW,315,0.0,1.0,77,0.00,,,0.00,Rainwise IP-100,2013-10-28 05:01:00,
2013-10-28 01:06:00,38.8,32.0,30.11,NW,315,0.0,1.0,77,0.00,,,0.00,Rainwise IP-100,2013-10-28 05:06:00,
2013-10-28 01:11:00,38.6,32.0,30.10,NW,315,1.4,2.0,77,0.00,,,0.00,Rainwise IP-100,2013-10-28 05:11:00,
2013-10-28 01:16:00,38.6,33.0,30.10,NW,315,1.4,1.4,78,0.00,,,0.00,Rainwise IP-100,2013-10-28 05:16:00,
2013-10-28 01:21:00,38.6,33.0,30.11,NW,315,0.0,1.0,78,0.00,,,0.00,Rainwise IP-100,2013-10-28 05:21:00,
2013-10-28 01:26:00,38.7,33.0,30.11,NW,315,0.0,1.0,79,0.00,,,0.00,Rainwise IP-100,2013-10-28 05:26:00,
2013-10-28 01:31:00,38.8,33.0,30.11,NW,315,0.0,1.0,79,0.00,,,0.00,Rainwise IP-100,2013-10-28 05:31:00,
2013-10-28 01:36:00,38.8,33.0,30.11,NW,315,0.0,2.0,79,0.00,,,0.00,Rainwise IP-100,2013-10-28 05:36:00,
2013-10-28 01:41:00,38.9,33.0,30.11,NW,315,0.0,0.0,79,0.00,,,0.00,Rainwise IP-100,2013-10-28 05:41:00,
2013-10-28 01:46:00,38.8,33.0,30.11,NW,315,0.0,0.0,79,0.00,,,0.00,Rainwise IP-100,2013-10-28 05:46:00,
2013-10-28 01:51:00,38.7,33.0,30.11,NW,315,0.0,2.0,79,0.00,,,0.00,Rainwise IP-100,2013-10-28 05:51:00,
2013-10-28 01:56:00,38.8,33.0,30.11,NW,315,2.3,0.0,79,0.00,,,0.00,Rainwise IP-100,2013-10-28 05:56:00,
2013-10-28 02:01:00,39.1,33.0,30.11,NNW,337,0.0,2.0,79,0.00,,,0.00,Rainwise IP-100,2013-10-28 06:01:00,
2013-10-28 02:06:00,39.5,35.0,30.11,NNW,337,0.0,2.0,78,0.00,,,0.00,Rainwise IP-100,2013-10-28 06:06:00,
2013-10-28 02:11:00,39.5,35.0,30.11,NNW,337,2.6,2.6,78,0.00,,,0.00,Rainwise IP-100,2013-10-28 06:11:00,
2013-10-28 02:16:00,39.0,33.0,30.11,NNW,337,2.3,3.0,78,0.00,,,0.00,Rainwise IP-100,2013-10-28 06:16:00,
2013-10-28 02:21:00,38.5,33.0,30.11,NNW,337,1.2,2.0,79,0.00,,,0.00,Rainwise IP-100,2013-10-28 06:21:00,
2013-10-28 02:26:00,38.3,32.0,30.11,NNW,337,1.9,2.0,79,0.00,,,0.00,Rainwise IP-100,2013-10-28 06:26:00,
2013-10-28 02:31:00,38.4,32.0,30.11,NNW,337,1.6,2.0,80,0.00,,,0.00,Rainwise IP-100,2013-10-28 06:31:00,
2013-10-28 02:36:00,38.8,33.0,30.11,NNW,337,0.0,3.0,80,0.00,,,0.00,Rainwise IP-100,2013-10-28 06:36:00,
2013-10-28 02:41:00,39.0,33.0,30.11,NNW,337,0.0,0.0,79,0.00,,,0.00,Rainwise IP-100,2013-10-28 06:41:00,
2013-10-28 02:46:00,39.2,33.0,30.11,NNW,337,0.0,1.0,79,0.00,,,0.00,Rainwise IP-100,2013-10-28 06:46:00,
2013-10-28 02:51:00,39.3,33.0,30.11,NNW,337,1.2,1.2,79,0.00,,,0.00,Rainwise IP-100,2013-10-28 06:51:00,
2013-10-28 02:56:00,39.1,33.0,30.11,NNW,337,0.0,2.0,79,0.00,,,0.00,Rainwise IP-100,2013-10-28 06:56:00,
2013-10-28 03:01:00,38.8,33.0,30.11,NNW,337,0.0,0.0,79,0.00,,,0.00,Rainwise IP-100,2013-10-28 07:01:00,
2013-10-28 03:06:00,38.5,33.0,30.10,NNW,337,0.0,1.0,80,0.00,,,0.00,Rainwise IP-100,2013-10-28 07:06:00,
2013-10-28 03:11:00,38.5,33.0,30.11,NNW,337,0.0,1.0,81,0.00,,,0.00,Rainwise IP-100,2013-10-28 07:11:00,
2013-10-28 03:16:00,38.2,33.0,30.11,WSW,247,2.8,3.0,81,0.00,,,0.00,Rainwise IP-100,2013-10-28 07:16:00,
2013-10-28 03:21:00,37.6,33.0,30.11,SW,225,2.3,3.0,82,0.00,,,0.00,Rainwise IP-100,2013-10-28 07:21:00,
2013-10-28 03:26:00,37.0,32.0,30.11,SW,225,0.0,2.0,82,0.00,,,0.00,Rainwise IP-100,2013-10-28 07:26:00,
2013-10-28 03:31:00,36.7,32.0,30.11,SW,225,0.0,1.0,83,0.00,,,0.00,Rainwise IP-100,2013-10-28 07:31:00,
2013-10-28 03:36:00,37.0,32.0,30.11,West,270,0.0,2.0,84,0.00,,,0.00,Rainwise IP-100,2013-10-28 07:36:00,
2013-10-28 03:41:00,37.5,33.0,30.11,West,270,0.0,2.0,84,0.00,,,0.00,Rainwise IP-100,2013-10-28 07:41:00,
2013-10-28 03:46:00,37.8,35.0,30.11,West,270,0.0,1.0,85,0.00,,,0.00,Rainwise IP-100,2013-10-28 07:46:00,
2013-10-28 03:51:00,38.0,35.0,30.11,West,270,0.0,1.0,85,0.00,,,0.00,Rainwise IP-100,2013-10-28 07:51:00,
2013-10-28 03:56:00,38.2,35.0,30.11,West,270,0.0,2.0,85,0.00,,,0.00,Rainwise IP-100,2013-10-28 07:56:00,
2013-10-28 04:01:00,38.3,35.0,30.11,NW,315,0.0,2.0,85,0.00,,,0.00,Rainwise IP-100,2013-10-28 08:01:00,
2013-10-28 04:06:00,38.4,35.0,30.11,NW,315,0.0,2.0,85,0.00,,,0.00,Rainwise IP-100,2013-10-28 08:06:00,
2013-10-28 04:11:00,38.5,35.0,30.12,NW,315,0.0,2.0,85,0.00,,,0.00,Rainwise IP-100,2013-10-28 08:11:00,
2013-10-28 04:16:00,38.4,35.0,30.11,North,360,0.0,2.0,85,0.00,,,0.00,Rainwise IP-100,2013-10-28 08:16:00,
2013-10-28 04:21:00,38.3,35.0,30.12,NNW,337,0.0,3.0,85,0.00,,,0.00,Rainwise IP-100,2013-10-28 08:21:00,
2013-10-28 04:26:00,38.2,35.0,30.11,NNW,337,0.0,1.0,86,0.00,,,0.00,Rainwise IP-100,2013-10-28 08:26:00,
2013-10-28 04:31:00,38.3,35.0,30.12,WNW,292,0.0,2.0,86,0.00,,,0.00,Rainwise IP-100,2013-10-28 08:31:00,
2013-10-28 04:36:00,38.4,35.0,30.12,WNW,292,0.0,2.0,86,0.00,,,0.00,Rainwise IP-100,2013-10-28 08:36:00,
2013-10-28 04:41:00,38.4,35.0,30.12,WNW,292,0.0,0.0,86,0.00,,,0.00,Rainwise IP-100,2013-10-28 08:41:00,
2013-10-28 04:46:00,38.1,35.0,30.12,WNW,292,0.0,0.0,86,0.00,,,0.00,Rainwise IP-100,2013-10-28 08:46:00,
2013-10-28 04:51:00,37.6,35.0,30.12,WNW,292,0.0,0.0,86,0.00,,,0.00,Rainwise IP-100,2013-10-28 08:51:00,
2013-10-28 04:56:00,37.2,33.0,30.12,WNW,292,1.2,1.2,86,0.00,,,0.00,Rainwise IP-100,2013-10-28 08:56:00,
2013-10-28 05:01:00,37.3,33.0,30.13,WNW,292,0.0,2.0,87,0.00,,,0.00,Rainwise IP-100,2013-10-28 09:01:00,
2013-10-28 05:06:00,37.4,33.0,30.12,WNW,292,0.0,1.0,87,0.00,,,0.00,Rainwise IP-100,2013-10-28 09:06:00,
2013-10-28 05:11:00,37.4,33.0,30.12,WNW,292,0.0,0.0,88,0.00,,,0.00,Rainwise IP-100,2013-10-28 09:11:00,
2013-10-28 05:16:00,37.3,33.0,30.12,WNW,292,1.2,1.2,88,0.00,,,0.00,Rainwise IP-100,2013-10-28 09:16:00,
2013-10-28 05:21:00,37.1,33.0,30.13,WSW,247,1.9,2.0,88,0.00,,,0.00,Rainwise IP-100,2013-10-28 09:21:00,
2013-10-28 05:26:00,37.0,33.0,30.13,WSW,247,0.0,1.0,88,0.00,,,0.00,Rainwise IP-100,2013-10-28 09:26:00,
2013-10-28 05:31:00,37.1,35.0,30.13,WSW,247,0.0,1.0,89,0.00,,,0.00,Rainwise IP-100,2013-10-28 09:31:00,
2013-10-28 05:36:00,37.2,35.0,30.13,WSW,247,0.0,0.0,89,0.00,,,0.00,Rainwise IP-100,2013-10-28 09:36:00,
2013-10-28 05:41:00,37.2,35.0,30.14,WSW,247,0.0,0.0,89,0.00,,,0.00,Rainwise IP-100,2013-10-28 09:41:00,
2013-10-28 05:46:00,37.1,35.0,30.14,WSW,247,0.0,1.0,89,0.00,,,0.00,Rainwise IP-100,2013-10-28 09:46:00,
2013-10-28 05:51:00,36.8,35.0,30.14,WSW,247,0.0,1.0,89,0.00,,,0.00,Rainwise IP-100,2013-10-28 09:51:00,
2013-10-28 05:56:00,36.5,35.0,30.14,WSW,247,1.2,2.0,89,0.00,,,0.00,Rainwise IP-100,2013-10-28 09:56:00,
2013-10-28 06:01:00,36.7,35.0,30.13,WSW,247,0.0,1.0,90,0.00,,,0.00,Rainwise IP-100,2013-10-28 10:01:00,
2013-10-28 06:06:00,37.1,35.0,30.14,WSW,247,0.0,1.0,90,0.00,,,0.00,Rainwise IP-100,2013-10-28 10:06:00,
2013-10-28 06:11:00,37.2,35.0,30.14,WSW,247,0.0,0.0,90,0.00,,,0.00,Rainwise IP-100,2013-10-28 10:11:00,
2013-10-28 06:16:00,37.2,35.0,30.14,WSW,247,0.0,1.0,90,0.00,,,0.00,Rainwise IP-100,2013-10-28 10:16:00,
2013-10-28 06:21:00,37.2,35.0,30.14,WSW,247,1.4,1.4,90,0.00,,,0.00,Rainwise IP-100,2013-10-28 10:21:00,
2013-10-28 06:26:00,37.2,35.0,30.14,WSW,247,0.0,1.0,90,0.00,,,0.00,Rainwise IP-100,2013-10-28 10:26:00,
2013-10-28 06:31:00,37.3,35.0,30.14,WSW,247,0.0,3.0,91,0.00,,,0.00,Rainwise IP-100,2013-10-28 10:31:00,
2013-10-28 06:36:00,37.2,35.0,30.14,WSW,247,0.0,3.0,91,0.00,,,0.00,Rainwise IP-100,2013-10-28 10:36:00,
2013-10-28 06:41:00,37.2,35.0,30.14,WSW,247,1.9,2.0,91,0.00,,,0.00,Rainwise IP-100,2013-10-28 10:41:00,
2013-10-28 06:46:00,37.2,35.0,30.14,WSW,247,1.6,2.0,91,0.00,,,0.00,Rainwise IP-100,2013-10-28 10:46:00,
2013-10-28 06:51:00,37.2,35.0,30.14,WSW,247,1.2,2.0,91,0.00,,,0.00,Rainwise IP-100,2013-10-28 10:51:00,
2013-10-28 06:56:00,37.2,35.0,30.14,WSW,247,0.0,1.0,91,0.00,,,0.00,Rainwise IP-100,2013-10-28 10:56:00,
2013-10-28 07:01:00,37.3,35.0,30.15,WSW,247,0.0,1.0,91,0.00,,,0.00,Rainwise IP-100,2013-10-28 11:01:00,
2013-10-28 07:06:00,37.2,35.0,30.15,WSW,247,0.0,0.0,91,0.00,,,0.00,Rainwise IP-100,2013-10-28 11:06:00,
2013-10-28 07:11:00,37.2,35.0,30.14,WNW,292,0.0,2.0,91,0.00,,,0.00,Rainwise IP-100,2013-10-28 11:11:00,
2013-10-28 07:16:00,37.2,35.0,30.14,NNW,337,3.5,4.0,91,0.00,,,0.00,Rainwise IP-100,2013-10-28 11:16:00,
2013-10-28 07:21:00,36.8,35.0,30.14,NNW,337,2.1,3.0,91,0.00,,,0.00,Rainwise IP-100,2013-10-28 11:21:00,
2013-10-28 07:26:00,36.1,33.0,30.14,NNW,337,0.0,2.0,91,0.00,,,0.00,Rainwise IP-100,2013-10-28 11:26:00,
2013-10-28 07:31:00,35.8,33.0,30.14,NNW,337,0.0,0.0,91,0.00,,,0.00,Rainwise IP-100,2013-10-28 11:31:00,
2013-10-28 07:36:00,35.9,33.0,30.15,NNW,337,0.0,0.0,91,0.00,,,0.00,Rainwise IP-100,2013-10-28 11:36:00,
2013-10-28 07:41:00,36.4,33.0,30.14,NNW,337,1.9,2.0,92,0.00,,,0.00,Rainwise IP-100,2013-10-28 11:41:00,
2013-10-28 07:46:00,36.9,35.0,30.15,NNW,337,0.0,3.0,92,0.00,,,0.00,Rainwise IP-100,2013-10-28 11:46:00,
2013-10-28 07:51:00,37.2,35.0,30.15,NNW,337,0.0,0.0,92,0.00,,,0.00,Rainwise IP-100,2013-10-28 11:51:00,
2013-10-28 07:56:00,37.4,35.0,30.16,WSW,247,1.6,2.0,92,0.00,,,0.00,Rainwise IP-100,2013-10-28 11:56:00,
2013-10-28 08:01:00,37.5,36.0,30.16,WNW,292,0.0,2.0,92,0.00,,,0.00,Rainwise IP-100,2013-10-28 12:01:00,
2013-10-28 08:06:00,37.9,36.0,30.16,NW,315,0.0,3.0,92,0.00,,,0.00,Rainwise IP-100,2013-10-28 12:06:00,
2013-10-28 08:11:00,38.8,37.0,30.16,NW,315,0.0,2.0,91,0.00,,,0.00,Rainwise IP-100,2013-10-28 12:11:00,
2013-10-28 08:16:00,39.4,37.0,30.17,West,270,1.9,0.0,91,0.00,,,0.00,Rainwise IP-100,2013-10-28 12:16:00,
2013-10-28 08:21:00,39.7,38.0,30.17,WSW,247,1.4,2.0,91,0.00,,,0.00,Rainwise IP-100,2013-10-28 12:21:00,
2013-10-28 08:26:00,40.4,38.0,30.18,WNW,292,0.0,2.0,91,0.00,,,0.00,Rainwise IP-100,2013-10-28 12:26:00,
2013-10-28 08:31:00,41.4,38.0,30.18,WSW,247,2.1,3.0,90,0.00,,,0.00,Rainwise IP-100,2013-10-28 12:31:00,
2013-10-28 08:36:00,42.6,40.0,30.18,WSW,247,1.6,4.0,89,0.00,,,0.00,Rainwise IP-100,2013-10-28 12:36:00,
2013-10-28 08:41:00,43.6,40.0,30.18,WSW,247,2.3,3.0,87,0.00,,,0.00,Rainwise IP-100,2013-10-28 12:41:00,
2013-10-28 08:46:00,44.7,40.0,30.19,WSW,247,2.1,4.0,84,0.00,,,0.00,Rainwise IP-100,2013-10-28 12:46:00,
2013-10-28 08:51:00,45.5,40.0,30.19,SW,225,4.0,5.0,81,0.00,,,0.00,Rainwise IP-100,2013-10-28 12:51:00,
2013-10-28 08:56:00,46.2,39.0,30.19,West,270,1.2,5.0,79,0.00,,,0.00,Rainwise IP-100,2013-10-28 12:56:00,
2013-10-28 09:01:00,46.7,40.0,30.19,WSW,247,5.1,5.1,77,0.00,,,0.00,Rainwise IP-100,2013-10-28 13:01:00,
2013-10-28 09:06:00,47.0,39.0,30.19,West,270,4.9,6.0,75,0.00,,,0.00,Rainwise IP-100,2013-10-28 13:06:00,
2013-10-28 09:11:00,47.1,39.0,30.19,West,270,2.6,7.0,74,0.00,,,0.00,Rainwise IP-100,2013-10-28 13:11:00,
2013-10-28 09:16:00,47.4,39.0,30.19,WSW,247,2.6,7.0,73,0.00,,,0.00,Rainwise IP-100,2013-10-28 13:16:00,
2013-10-28 09:21:00,47.8,39.0,30.19,WSW,247,1.9,5.0,72,0.00,,,0.00,Rainwise IP-100,2013-10-28 13:21:00,
2013-10-28 09:26:00,48.4,39.0,30.19,West,270,1.9,5.0,71,0.00,,,0.00,Rainwise IP-100,2013-10-28 13:26:00,
2013-10-28 09:31:00,48.9,40.0,30.19,WSW,247,3.0,7.0,70,0.00,,,0.00,Rainwise IP-100,2013-10-28 13:31:00,
2013-10-28 09:36:00,49.2,39.0,30.19,WSW,247,2.1,7.0,68,0.00,,,0.00,Rainwise IP-100,2013-10-28 13:36:00,
2013-10-28 09:41:00,49.6,39.0,30.19,SW,225,4.2,8.0,67,0.00,,,0.00,Rainwise IP-100,2013-10-28 13:41:00,
2013-10-28 09:46:00,49.9,39.0,30.19,WSW,247,4.0,8.0,66,0.00,,,0.00,Rainwise IP-100,2013-10-28 13:46:00,
2013-10-28 09:51:00,49.9,38.0,30.19,SSW,202,3.0,8.0,65,0.00,,,0.00,Rainwise IP-100,2013-10-28 13:51:00,
2013-10-28 09:56:00,50.1,38.0,30.19,SSW,202,5.1,9.0,64,0.00,,,0.00,Rainwise IP-100,2013-10-28 13:56:00,
2013-10-28 10:01:00,50.6,38.0,30.19,WSW,247,6.3,12.0,63,0.00,,,0.00,Rainwise IP-100,2013-10-28 14:01:00,
2013-10-28 10:06:00,51.1,39.0,30.19,WNW,292,3.0,8.0,62,0.00,,,0.00,Rainwise IP-100,2013-10-28 14:06:00,
2013-10-28 10:11:00,51.4,38.0,30.19,WNW,292,5.1,10.0,60,0.00,,,0.00,Rainwise IP-100,2013-10-28 14:11:00,
2013-10-28 10:16:00,51.7,38.0,30.19,SW,225,3.0,10.0,59,0.00,,,0.00,Rainwise IP-100,2013-10-28 14:16:00,
2013-10-28 10:21:00,52.1,37.0,30.19,WNW,292,1.9,10.0,57,0.00,,,0.00,Rainwise IP-100,2013-10-28 14:21:00,
2013-10-28 10:26:00,52.4,36.0,30.19,NW,315,3.0,11.0,55,0.00,,,0.00,Rainwise IP-100,2013-10-28 14:26:00,
2013-10-28 10:31:00,52.6,37.0,30.19,SW,225,6.3,9.0,54,0.00,,,0.00,Rainwise IP-100,2013-10-28 14:31:00,
2013-10-28 10:36:00,52.7,37.0,30.19,WSW,247,4.0,9.0,54,0.00,,,0.00,Rainwise IP-100,2013-10-28 14:36:00,
2013-10-28 10:41:00,52.8,36.0,30.19,WSW,247,9.3,11.0,53,0.00,,,0.00,Rainwise IP-100,2013-10-28 14:41:00,
2013-10-28 10:46:00,52.8,36.0,30.19,SSW,202,2.6,12.0,52,0.00,,,0.00,Rainwise IP-100,2013-10-28 14:46:00,
2013-10-28 10:51:00,52.8,35.0,30.19,WSW,247,3.0,12.0,51,0.00,,,0.00,Rainwise IP-100,2013-10-28 14:51:00,
2013-10-28 10:56:00,52.9,35.0,30.19,WSW,247,7.9,10.0,50,0.00,,,0.00,Rainwise IP-100,2013-10-28 14:56:00,
2013-10-28 11:01:00,53.0,35.0,30.19,SSW,202,4.7,12.0,50,0.00,,,0.00,Rainwise IP-100,2013-10-28 15:01:00,
2013-10-28 11:06:00,53.2,35.0,30.19,SW,225,9.8,12.0,50,0.00,,,0.00,Rainwise IP-100,2013-10-28 15:06:00,
2013-10-28 11:11:00,53.3,35.0,30.19,SSW,202,8.6,14.0,50,0.00,,,0.00,Rainwise IP-100,2013-10-28 15:11:00,
2013-10-28 11:16:00,53.5,35.0,30.20,WSW,247,8.2,11.0,49,0.00,,,0.00,Rainwise IP-100,2013-10-28 15:16:00,
2013-10-28 11:21:00,53.6,35.0,30.19,West,270,2.8,14.0,49,0.00,,,0.00,Rainwise IP-100,2013-10-28 15:21:00,
2013-10-28 11:26:00,53.6,35.0,30.19,SW,225,3.7,14.0,49,0.00,,,0.00,Rainwise IP-100,2013-10-28 15:26:00,
2013-10-28 11:31:00,53.8,35.0,30.19,SW,225,6.5,10.0,49,0.00,,,0.00,Rainwise IP-100,2013-10-28 15:31:00,
2013-10-28 11:36:00,54.2,36.0,30.19,West,270,6.5,14.0,50,0.00,,,0.00,Rainwise IP-100,2013-10-28 15:36:00,
2013-10-28 11:41:00,54.2,36.0,30.19,WNW,292,2.3,15.0,50,0.00,,,0.00,Rainwise IP-100,2013-10-28 15:41:00,
2013-10-28 11:46:00,54.4,37.0,30.19,WSW,247,4.4,16.0,51,0.00,,,0.00,Rainwise IP-100,2013-10-28 15:46:00,
2013-10-28 11:51:00,54.7,37.0,30.19,SW,225,10.7,12.0,51,0.00,,,0.00,Rainwise IP-100,2013-10-28 15:51:00,
2013-10-28 11:56:00,54.6,37.0,30.19,SW,225,6.1,15.0,51,0.00,,,0.00,Rainwise IP-100,2013-10-28 15:56:00,
2013-10-28 12:01:00,54.5,37.0,30.18,SSW,202,5.1,12.0,50,0.00,,,0.00,Rainwise IP-100,2013-10-28 16:01:00,
2013-10-28 12:06:00,54.7,37.0,30.18,West,270,6.1,11.0,51,0.00,,,0.00,Rainwise IP-100,2013-10-28 16:06:00,
2013-10-28 12:11:00,55.0,37.0,30.18,SW,225,6.8,14.0,50,0.00,,,0.00,Rainwise IP-100,2013-10-28 16:11:00,
2013-10-28 12:16:00,55.3,37.0,30.18,WSW,247,2.1,14.0,50,0.00,,,0.00,Rainwise IP-100,2013-10-28 16:16:00,
2013-10-28 12:21:00,55.3,37.0,30.18,West,270,3.7,12.0,49,0.00,,,0.00,Rainwise IP-100,2013-10-28 16:21:00,
2013-10-28 12:26:00,55.4,37.0,30.17,SW,225,7.9,16.0,49,0.00,,,0.00,Rainwise IP-100,2013-10-28 16:26:00,
2013-10-28 12:31:00,55.5,37.0,30.17,SW,225,10.0,14.0,49,0.00,,,0.00,Rainwise IP-100,2013-10-28 16:31:00,
2013-10-28 12:36:00,55.8,38.0,30.17,West,270,5.4,16.0,50,0.00,,,0.00,Rainwise IP-100,2013-10-28 16:36:00,
2013-10-28 12:41:00,55.8,38.0,30.17,WNW,292,12.8,14.0,50,0.00,,,0.00,Rainwise IP-100,2013-10-28 16:41:00,
2013-10-28 12:46:00,55.8,38.0,30.16,SW,225,12.6,13.0,52,0.00,,,0.00,Rainwise IP-100,2013-10-28 16:46:00,
2013-10-28 12:51:00,56.0,39.0,30.16,SSW,202,2.6,15.0,53,0.00,,,0.00,Rainwise IP-100,2013-10-28 16:51:00,
2013-10-28 12:56:00,56.2,40.0,30.16,West,270,6.5,17.0,55,0.00,,,0.00,Rainwise IP-100,2013-10-28 16:56:00,
2013-10-28 13:01:00,56.1,41.0,30.16,SW,225,13.8,17.0,58,0.00,,,0.00,Rainwise IP-100,2013-10-28 17:01:00,
2013-10-28 13:06:00,55.8,42.0,30.15,WSW,247,4.2,16.0,60,0.00,,,0.00,Rainwise IP-100,2013-10-28 17:06:00,
2013-10-28 13:11:00,55.7,42.0,30.15,SW,225,7.2,14.0,61,0.00,,,0.00,Rainwise IP-100,2013-10-28 17:11:00,
2013-10-28 13:16:00,55.9,42.0,30.14,SSW,202,5.4,15.0,61,0.00,,,0.00,Rainwise IP-100,2013-10-28 17:16:00,
2013-10-28 13:21:00,56.0,42.0,30.15,South,180,13.5,18.0,60,0.00,,,0.00,Rainwise IP-100,2013-10-28 17:21:00,
2013-10-28 13:26:00,56.1,42.0,30.14,SW,225,10.3,16.0,60,0.00,,,0.00,Rainwise IP-100,2013-10-28 17:26:00,
2013-10-28 13:31:00,56.3,42.0,30.14,SW,225,14.2,15.0,60,0.00,,,0.00,Rainwise IP-100,2013-10-28 17:31:00,
2013-10-28 13:36:00,56.3,42.0,30.14,SSW,202,8.6,15.0,59,0.00,,,0.00,Rainwise IP-100,2013-10-28 17:36:00,
2013-10-28 13:41:00,56.4,42.0,30.14,SSW,202,4.7,19.0,59,0.00,,,0.00,Rainwise IP-100,2013-10-28 17:41:00,
2013-10-28 13:46:00,56.4,42.0,30.14,WSW,247,13.5,16.0,58,0.00,,,0.00,Rainwise IP-100,2013-10-28 17:46:00,
2013-10-28 13:51:00,56.4,42.0,30.14,WSW,247,20.1,20.1,58,0.00,,,0.00,Rainwise IP-100,2013-10-28 17:51:00,
2013-10-28 13:56:00,56.5,42.0,30.14,SW,225,12.6,20.0,58,0.00,,,0.00,Rainwise IP-100,2013-10-28 17:56:00,
2013-10-28 14:01:00,56.5,41.0,30.14,SSW,202,5.6,17.0,57,0.00,,,0.00,Rainwise IP-100,2013-10-28 18:01:00,
2013-10-28 14:06:00,56.7,41.0,30.14,SW,225,11.4,17.0,57,0.00,,,0.00,Rainwise IP-100,2013-10-28 18:06:00,
2013-10-28 14:11:00,56.8,42.0,30.14,SW,225,7.7,16.0,58,0.00,,,0.00,Rainwise IP-100,2013-10-28 18:11:00,
2013-10-28 14:16:00,56.9,42.0,30.14,SSW,202,8.4,16.0,58,0.00,,,0.00,Rainwise IP-100,2013-10-28 18:16:00,
2013-10-28 14:21:00,57.0,42.0,30.14,SW,225,9.8,15.0,57,0.00,,,0.00,Rainwise IP-100,2013-10-28 18:21:00,
2013-10-28 14:26:00,56.9,41.0,30.14,SW,225,11.7,19.0,56,0.00,,,0.00,Rainwise IP-100,2013-10-28 18:26:00,
2013-10-28 14:31:00,57.0,41.0,30.14,West,270,2.8,16.0,56,0.00,,,0.00,Rainwise IP-100,2013-10-28 18:31:00,
2013-10-28 14:36:00,57.3,41.0,30.14,WSW,247,12.1,18.0,56,0.00,,,0.00,Rainwise IP-100,2013-10-28 18:36:00,
2013-10-28 14:41:00,57.4,41.0,30.14,WSW,247,6.1,19.0,54,0.00,,,0.00,Rainwise IP-100,2013-10-28 18:41:00,
2013-10-28 14:46:00,57.4,41.0,30.14,WSW,247,6.3,16.0,54,0.00,,,0.00,Rainwise IP-100,2013-10-28 18:46:00,
2013-10-28 14:51:00,57.4,42.0,30.14,SSW,202,8.2,16.0,56,0.00,,,0.00,Rainwise IP-100,2013-10-28 18:51:00,
2013-10-28 14:56:00,57.5,42.0,30.14,SSW,202,5.4,15.0,56,0.00,,,0.00,Rainwise IP-100,2013-10-28 18:56:00,
2013-10-28 15:01:00,57.6,42.0,30.14,SSW,202,9.3,13.0,56,0.00,,,0.00,Rainwise IP-100,2013-10-28 19:01:00,
2013-10-28 15:06:00,57.7,42.0,30.14,SW,225,6.3,14.0,56,0.00,,,0.00,Rainwise IP-100,2013-10-28 19:06:00,
2013-10-28 15:11:00,57.8,42.0,30.14,SSW,202,4.9,12.0,56,0.00,,,0.00,Rainwise IP-100,2013-10-28 19:11:00,
2013-10-28 15:16:00,57.9,42.0,30.14,West,270,4.4,11.0,55,0.00,,,0.00,Rainwise IP-100,2013-10-28 19:16:00,
2013-10-28 15:21:00,57.9,41.0,30.14,SW,225,6.3,11.0,54,0.00,,,0.00,Rainwise IP-100,2013-10-28 19:21:00,
2013-10-28 15:26:00,57.8,42.0,30.14,SW,225,1.6,14.0,56,0.00,,,0.00,Rainwise IP-100,2013-10-28 19:26:00,
2013-10-28 15:31:00,57.8,42.0,30.14,WSW,247,6.5,13.0,57,0.00,,,0.00,Rainwise IP-100,2013-10-28 19:31:00,
2013-10-28 15:36:00,57.8,43.0,30.15,WSW,247,3.0,17.0,59,0.00,,,0.00,Rainwise IP-100,2013-10-28 19:36:00,
2013-10-28 15:41:00,57.9,44.0,30.14,SSW,202,6.3,11.0,59,0.00,,,0.00,Rainwise IP-100,2013-10-28 19:41:00,
2013-10-28 15:46:00,58.0,43.0,30.15,SSW,202,3.0,14.0,57,0.00,,,0.00,Rainwise IP-100,2013-10-28 19:46:00,
2013-10-28 15:51:00,58.0,42.0,30.14,SSW,202,5.1,11.0,56,0.00,,,0.00,Rainwise IP-100,2013-10-28 19:51:00,
2013-10-28 15:56:00,58.1,42.0,30.15,SSW,202,2.8,15.0,55,0.00,,,0.00,Rainwise IP-100,2013-10-28 19:56:00,
2013-10-28 16:01:00,58.1,42.0,30.15,SSW,202,5.8,13.0,55,0.00,,,0.00,Rainwise IP-100,2013-10-28 20:01:00,
2013-10-28 16:06:00,58.0,41.0,30.15,SW,225,3.7,12.0,54,0.00,,,0.00,Rainwise IP-100,2013-10-28 20:06:00,
2013-10-28 16:11:00,58.2,42.0,30.16,WSW,247,3.0,12.0,55,0.00,,,0.00,Rainwise IP-100,2013-10-28 20:11:00,
2013-10-28 16:16:00,58.2,42.0,30.15,WSW,247,3.3,14.0,55,0.00,,,0.00,Rainwise IP-100,2013-10-28 20:16:00,
2013-10-28 16:21:00,57.9,42.0,30.16,South,180,3.5,9.0,55,0.00,,,0.00,Rainwise IP-100,2013-10-28 20:21:00,
2013-10-28 16:26:00,57.6,41.0,30.16,WSW,247,4.7,11.0,55,0.00,,,0.00,Rainwise IP-100,2013-10-28 20:26:00,
2013-10-28 16:31:00,57.5,42.0,30.15,SW,225,5.4,9.0,56,0.00,,,0.00,Rainwise IP-100,2013-10-28 20:31:00,
2013-10-28 16:36:00,57.5,41.0,30.16,WNW,292,0.0,9.0,55,0.00,,,0.00,Rainwise IP-100,2013-10-28 20:36:00,
2013-10-28 16:41:00,57.8,39.0,30.16,West,270,1.2,9.0,51,0.00,,,0.00,Rainwise IP-100,2013-10-28 20:41:00,
2013-10-28 16:46:00,58.0,39.0,30.16,West,270,1.6,8.0,48,0.00,,,0.00,Rainwise IP-100,2013-10-28 20:46:00,
2013-10-28 16:51:00,58.0,38.0,30.16,NNW,337,2.6,11.0,46,0.00,,,0.00,Rainwise IP-100,2013-10-28 20:51:00,
2013-10-28 16:56:00,57.9,38.0,30.16,WSW,247,8.2,10.0,46,0.00,,,0.00,Rainwise IP-100,2013-10-28 20:56:00,
2013-10-28 17:01:00,57.6,37.0,30.17,NW,315,4.9,9.0,46,0.00,,,0.00,Rainwise IP-100,2013-10-28 21:01:00,
2013-10-28 17:06:00,57.3,37.0,30.17,WNW,292,0.0,11.0,46,0.00,,,0.00,Rainwise IP-100,2013-10-28 21:06:00,
2013-10-28 17:11:00,57.1,37.0,30.17,NW,315,0.0,4.0,46,0.00,,,0.00,Rainwise IP-100,2013-10-28 21:11:00,
2013-10-28 17:16:00,56.9,37.0,30.18,NNE,22,3.5,8.0,46,0.00,,,0.00,Rainwise IP-100,2013-10-28 21:16:00,
2013-10-28 17:21:00,56.5,37.0,30.18,NW,315,3.3,7.0,47,0.00,,,0.00,Rainwise IP-100,2013-10-28 21:21:00,
2013-10-28 17:26:00,56.1,36.0,30.18,NNW,337,1.9,8.0,47,0.00,,,0.00,Rainwise IP-100,2013-10-28 21:26:00,
2013-10-28 17:31:00,55.8,36.0,30.19,WNW,292,3.3,8.0,47,0.00,,,0.00,Rainwise IP-100,2013-10-28 21:31:00,
2013-10-28 17:36:00,55.5,37.0,30.19,NW,315,1.2,8.0,48,0.00,,,0.00,Rainwise IP-100,2013-10-28 21:36:00,
2013-10-28 17:41:00,55.3,36.0,30.19,NNW,337,0.0,7.0,48,0.00,,,0.00,Rainwise IP-100,2013-10-28 21:41:00,
2013-10-28 17:46:00,54.9,37.0,30.19,WNW,292,1.4,4.0,49,0.00,,,0.00,Rainwise IP-100,2013-10-28 21:46:00,
2013-10-28 17:51:00,54.5,36.0,30.19,North,360,3.0,6.0,49,0.00,,,0.00,Rainwise IP-100,2013-10-28 21:51:00,
2013-10-28 17:56:00,54.2,36.0,30.20,NNW,337,3.3,5.0,50,0.00,,,0.00,Rainwise IP-100,2013-10-28 21:56:00,
2013-10-28 18:01:00,54.0,36.0,30.20,NW,315,1.6,7.0,50,0.00,,,0.00,Rainwise IP-100,2013-10-28 22:01:00,
2013-10-28 18:06:00,53.9,36.0,30.20,NW,315,0.0,5.0,50,0.00,,,0.00,Rainwise IP-100,2013-10-28 22:06:00,
2013-10-28 18:11:00,53.7,36.0,30.21,NNW,337,1.4,6.0,51,0.00,,,0.00,Rainwise IP-100,2013-10-28 22:11:00,
2013-10-28 18:16:00,53.6,36.0,30.21,North,360,5.1,8.0,51,0.00,,,0.00,Rainwise IP-100,2013-10-28 22:16:00,
2013-10-28 18:21:00,53.2,35.0,30.22,NW,315,4.7,5.0,51,0.00,,,0.00,Rainwise IP-100,2013-10-28 22:21:00,
2013-10-28 18:26:00,53.1,36.0,30.22,WNW,292,1.2,7.0,52,0.00,,,0.00,Rainwise IP-100,2013-10-28 22:26:00,
2013-10-28 18:31:00,53.0,36.0,30.22,WNW,292,2.3,5.0,52,0.00,,,0.00,Rainwise IP-100,2013-10-28 22:31:00,
2013-10-28 18:36:00,52.8,36.0,30.22,WNW,292,0.0,5.0,52,0.00,,,0.00,Rainwise IP-100,2013-10-28 22:36:00,
2013-10-28 18:41:00,52.5,36.0,30.23,NNW,337,2.3,3.0,52,0.00,,,0.00,Rainwise IP-100,2013-10-28 22:41:00,
2013-10-28 18:46:00,52.1,36.0,30.23,NW,315,0.0,3.0,53,0.00,,,0.00,Rainwise IP-100,2013-10-28 22:46:00,
2013-10-28 18:51:00,51.5,36.0,30.24,NW,315,0.0,0.0,54,0.00,,,0.00,Rainwise IP-100,2013-10-28 22:51:00,
2013-10-28 18:56:00,51.1,36.0,30.24,North,360,2.6,5.0,55,0.00,,,0.00,Rainwise IP-100,2013-10-28 22:56:00,
2013-10-28 19:01:00,50.9,36.0,30.24,NNW,337,1.4,4.0,55,0.00,,,0.00,Rainwise IP-100,2013-10-28 23:01:00,
2013-10-28 19:06:00,50.9,36.0,30.24,North,360,1.6,7.0,55,0.00,,,0.00,Rainwise IP-100,2013-10-28 23:06:00,
2013-10-28 19:11:00,51.1,36.0,30.24,NNW,337,1.9,5.0,54,0.00,,,0.00,Rainwise IP-100,2013-10-28 23:11:00,
2013-10-28 19:16:00,51.2,36.0,30.25,NW,315,1.4,4.0,54,0.00,,,0.00,Rainwise IP-100,2013-10-28 23:16:00,
2013-10-28 19:21:00,51.1,36.0,30.25,NW,315,2.1,4.0,54,0.00,,,0.00,Rainwise IP-100,2013-10-28 23:21:00,
2013-10-28 19:26:00,51.0,36.0,30.26,NW,315,1.4,3.0,54,0.00,,,0.00,Rainwise IP-100,2013-10-28 23:26:00,
2013-10-28 19:31:00,50.5,35.0,30.26,NNE,22,0.0,1.0,55,0.00,,,0.00,Rainwise IP-100,2013-10-28 23:31:00,
2013-10-28 19:36:00,49.7,36.0,30.26,NNE,22,1.2,2.0,57,0.00,,,0.00,Rainwise IP-100,2013-10-28 23:36:00,
2013-10-28 19:41:00,49.2,35.0,30.25,NNW,337,3.0,4.0,57,0.00,,,0.00,Rainwise IP-100,2013-10-28 23:41:00,
2013-10-28 19:46:00,49.0,35.0,30.26,NNW,337,2.1,4.0,58,0.00,,,0.00,Rainwise IP-100,2013-10-28 23:46:00,
2013-10-28 19:51:00,49.0,35.0,30.25,NNW,337,1.4,3.0,58,0.00,,,0.00,Rainwise IP-100,2013-10-28 23:51:00,
2013-10-28 19:56:00,49.0,35.0,30.26,North,360,1.9,3.0,58,0.00,,,0.00,Rainwise IP-100,2013-10-28 23:56:00,
2013-10-28 20:01:00,48.8,35.0,30.26,North,360,0.0,2.0,58,0.00,,,0.00,Rainwise IP-100,2013-10-29 00:01:00,
2013-10-28 20:06:00,48.5,36.0,30.26,NW,315,1.9,4.0,59,0.00,,,0.00,Rainwise IP-100,2013-10-29 00:06:00,
2013-10-28 20:11:00,48.6,36.0,30.26,NNW,337,2.1,2.1,59,0.00,,,0.00,Rainwise IP-100,2013-10-29 00:11:00,
2013-10-28 20:16:00,48.8,36.0,30.26,NW,315,2.6,4.0,59,0.00,,,0.00,Rainwise IP-100,2013-10-29 00:16:00,
2013-10-28 20:21:00,48.9,36.0,30.26,NW,315,1.6,3.0,59,0.00,,,0.00,Rainwise IP-100,2013-10-29 00:21:00,
2013-10-28 20:26:00,48.6,36.0,30.27,NW,315,0.0,2.0,59,0.00,,,0.00,Rainwise IP-100,2013-10-29 00:26:00,
2013-10-28 20:31:00,48.2,35.0,30.27,NW,315,0.0,0.0,60,0.00,,,0.00,Rainwise IP-100,2013-10-29 00:31:00,
2013-10-28 20:36:00,47.8,35.0,30.27,NNW,337,1.9,1.9,60,0.00,,,0.00,Rainwise IP-100,2013-10-29 00:36:00,
2013-10-28 20:41:00,47.6,35.0,30.27,NNW,337,2.1,2.1,61,0.00,,,0.00,Rainwise IP-100,2013-10-29 00:41:00,
2013-10-28 20:46:00,47.8,35.0,30.27,NNW,337,2.8,3.0,61,0.00,,,0.00,Rainwise IP-100,2013-10-29 00:46:00,
2013-10-28 20:51:00,47.9,36.0,30.27,NNW,337,1.4,3.0,61,0.00,,,0.00,Rainwise IP-100,2013-10-29 00:51:00,
2013-10-28 20:56:00,48.0,36.0,30.27,NNW,337,0.0,2.0,61,0.00,,,0.00,Rainwise IP-100,2013-10-29 00:56:00,
2013-10-28 21:01:00,48.0,36.0,30.27,NNW,337,2.6,2.6,61,0.00,,,0.00,Rainwise IP-100,2013-10-29 01:01:00,
2013-10-28 21:06:00,48.1,36.0,30.27,NNW,337,3.0,4.0,61,0.00,,,0.00,Rainwise IP-100,2013-10-29 01:06:00,
2013-10-28 21:11:00,48.1,36.0,30.28,North,360,4.9,9.0,62,0.00,,,0.00,Rainwise IP-100,2013-10-29 01:11:00,
2013-10-28 21:16:00,48.2,36.0,30.29,North,360,8.2,13.0,62,0.00,,,0.00,Rainwise IP-100,2013-10-29 01:16:00,
2013-10-28 21:21:00,48.4,36.0,30.29,North,360,4.9,10.0,61,0.00,,,0.00,Rainwise IP-100,2013-10-29 01:21:00,
2013-10-28 21:26:00,48.2,36.0,30.29,NNW,337,1.6,9.0,61,0.00,,,0.00,Rainwise IP-100,2013-10-29 01:26:00,
2013-10-28 21:31:00,47.9,36.0,30.29,North,360,4.0,6.0,61,0.00,,,0.00,Rainwise IP-100,2013-10-29 01:31:00,
2013-10-28 21:36:00,47.6,35.0,30.29,NNW,337,2.1,7.0,62,0.00,,,0.00,Rainwise IP-100,2013-10-29 01:36:00,
2013-10-28 21:41:00,47.4,35.0,30.30,NNE,22,0.0,7.0,62,0.00,,,0.00,Rainwise IP-100,2013-10-29 01:41:00,
2013-10-28 21:46:00,47.1,35.0,30.30,NNW,337,3.7,4.0,63,0.00,,,0.00,Rainwise IP-100,2013-10-29 01:46:00,
2013-10-28 21:51:00,46.8,35.0,30.30,NNE,22,1.2,7.0,64,0.00,,,0.00,Rainwise IP-100,2013-10-29 01:51:00,
2013-10-28 21:56:00,46.5,36.0,30.30,NNE,22,4.0,6.0,65,0.00,,,0.00,Rainwise IP-100,2013-10-29 01:56:00,
2013-10-28 22:01:00,46.4,35.0,30.30,NE,45,1.2,7.0,65,0.00,,,0.00,Rainwise IP-100,2013-10-29 02:01:00,
2013-10-28 22:06:00,46.4,35.0,30.31,NE,45,2.8,9.0,65,0.00,,,0.00,Rainwise IP-100,2013-10-29 02:06:00,
2013-10-28 22:11:00,46.4,35.0,30.31,North,360,3.0,9.0,64,0.00,,,0.00,Rainwise IP-100,2013-10-29 02:11:00,
2013-10-28 22:16:00,46.3,35.0,30.32,North,360,1.4,7.0,64,0.00,,,0.00,Rainwise IP-100,2013-10-29 02:16:00,
2013-10-28 22:21:00,46.2,35.0,30.31,NE,45,4.0,8.0,64,0.00,,,0.00,Rainwise IP-100,2013-10-29 02:21:00,
2013-10-28 22:26:00,46.0,35.0,30.32,NNW,337,0.0,7.0,64,0.00,,,0.00,Rainwise IP-100,2013-10-29 02:26:00,
2013-10-28 22:31:00,45.9,35.0,30.32,NNW,337,2.8,4.0,64,0.00,,,0.00,Rainwise IP-100,2013-10-29 02:31:00,
2013-10-28 22:36:00,45.8,35.0,30.32,NE,45,0.0,8.0,65,0.00,,,0.00,Rainwise IP-100,2013-10-29 02:36:00,
2013-10-28 22:41:00,45.7,35.0,30.32,NNE,22,0.0,6.0,65,0.00,,,0.00,Rainwise IP-100,2013-10-29 02:41:00,
2013-10-28 22:46:00,45.6,35.0,30.33,North,360,1.2,5.0,65,0.00,,,0.00,Rainwise IP-100,2013-10-29 02:46:00,
2013-10-28 22:51:00,45.4,35.0,30.32,NNE,22,4.0,5.0,65,0.00,,,0.00,Rainwise IP-100,2013-10-29 02:51:00,
2013-10-28 22:56:00,45.4,35.0,30.33,NNW,337,2.3,6.0,65,0.00,,,0.00,Rainwise IP-100,2013-10-29 02:56:00,
2013-10-28 23:01:00,45.2,35.0,30.32,NE,45,2.6,5.0,65,0.00,,,0.00,Rainwise IP-100,2013-10-29 03:01:00,
2013-10-28 23:06:00,44.9,35.0,30.33,ENE,67,3.3,4.0,65,0.00,,,0.00,Rainwise IP-100,2013-10-29 03:06:00,
2013-10-28 23:11:00,44.9,35.0,30.33,North,360,2.6,8.0,65,0.00,,,0.00,Rainwise IP-100,2013-10-29 03:11:00,
2013-10-28 23:16:00,45.0,33.0,30.33,NNE,22,2.6,5.0,64,0.00,,,0.00,Rainwise IP-100,2013-10-29 03:16:00,
2013-10-28 23:21:00,44.9,33.0,30.33,NNW,337,2.3,6.0,64,0.00,,,0.00,Rainwise IP-100,2013-10-29 03:21:00,
2013-10-28 23:26:00,44.7,33.0,30.34,North,360,1.9,5.0,64,0.00,,,0.00,Rainwise IP-100,2013-10-29 03:26:00,
2013-10-28 23:31:00,44.6,33.0,30.34,NNE,22,0.0,6.0,64,0.00,,,0.00,Rainwise IP-100,2013-10-29 03:31:00,
2013-10-28 23:36:00,44.5,33.0,30.34,NE,45,2.3,4.0,64,0.00,,,0.00,Rainwise IP-100,2013-10-29 03:36:00,
2013-10-28 23:41:00,44.2,33.0,30.33,NNE,22,1.6,4.0,64,0.00,,,0.00,Rainwise IP-100,2013-10-29 03:41:00,
2013-10-28 23:46:00,43.8,33.0,30.34,NNW,337,0.0,3.0,65,0.00,,,0.00,Rainwise IP-100,2013-10-29 03:46:00,
2013-10-28 23:51:00,43.6,33.0,30.34,ENE,67,2.8,5.0,65,0.00,,,0.00,Rainwise IP-100,2013-10-29 03:51:00,
2013-10-28 23:56:00,43.6,33.0,30.34,ENE,67,1.6,6.0,65,0.00,,,0.00,Rainwise IP-100,2013-10-29 03:56:00,